Weather Roundup
Issued by NWS

Home | Current Version | Previous Version | Text Only | Print | Product List | Glossary On
Versions: 1 2 3 4 5 6 7 8 9 10 11 12 13 14 15 16 17 18 19 20 21 22 23 24 25 26 27 28 29 30 31 32 33 34 35 36 37 38 39 40 41 42 43 44 45 46 47 48 49 50
000
NZUS93 KARX 011610
HRRWXR

CURRENT HOURLY OBSERVATIONS ACROSS
MUCH OF THE UPPER MISSISSIPPI VALLEY
NATIONAL WEATHER SERVICE LA CROSSE WI
1100 AM CDT TUE SEP 01 2015


...SOUTHEAST MINNESOTA...


CITY           SKY/WX    TMP DP  RH WIND       PRES   REMARKS
ROCHESTER      MOSUNNY   79  72  79 S9        29.97S
ROCHESTER/MAYO FAIR      79  71  77 SE6       29.96S
WINONA         NOT AVBL
AUSTIN           N/A     79  72  78 S8        29.96S
ALBERT LEA     SUNNY     79  72  78 S5        29.95S
DODGE CENTER   PTSUNNY   77  72  83 SW7       29.97R
PRESTON        MOSUNNY   78  71  78 S7        29.98S
OWATONNA       MOSUNNY   79  72  78 S5        29.95R
FARIBAULT      MOSUNNY   81  72  74 S3        29.94S
$$

...ELSEWHERE IN MINNESOTA...


CITY           SKY/WX    TMP DP  RH WIND       PRES   REMARKS
MINNEAPOLIS    PTSUNNY   80  69  69 S8        29.92S
INTNL FALLS    PTSUNNY   70  58  65 CALM      29.90S
DULUTH         CLOUDY    75  67  76 S3        29.92S
RED WING       PTSUNNY   81  72  74 CALM      29.92S
REDWOOD FALLS  CLOUDY    75  68  78 CALM      29.90S
MANKATO        SUNNY     77  70  78 SE6       29.93S
WORTHINGTON    PTSUNNY   73  66  78 S6        29.92S
FAIRMONT       SUNNY     77  66  69 S8        29.92S
$$

...SOUTHWEST WISCONSIN...


CITY           SKY/WX    TMP DP  RH WIND       PRES   REMARKS
LA CROSSE      SUNNY     81  70  69 S9        29.95F
PRAIRIE DU CHI SUNNY     81  69  67 SW7       29.98S
BOSCOBEL       SUNNY     85  72  65 SW7       29.98F HX  91
LONE ROCK      SUNNY     83  71  67 S7        29.99F
PLATTEVILLE    SUNNY     80  75  83 S10       30.01F
FORT MC COY    MOSUNNY   82  67  60 S3        29.98S
CAMP DOUGLAS   MOSUNNY   82  77  83 VRB6      29.98F HX  91
VIROQUA          N/A     80  74  82 S7        30.00S
WIS DELLS      SUNNY     83  68  58 S7        30.00S
$$

...ELSEWHERE IN WISCONSIN...


CITY           SKY/WX    TMP DP  RH WIND       PRES   REMARKS
MILWAUKEE      SUNNY     83  72  69 SW8       30.02F
MADISON        MOSUNNY   83  70  64 SW8       30.01S
GREEN BAY      SUNNY     80  72  76 SW7       29.99S HAZE
EAU CLAIRE     PTSUNNY   80  68  66 S7        29.94F
BLACK RVR FLS  FAIR      82  69  65 S5        29.96S
MEDFORD        MOSUNNY   76  72  86 SW6       29.99F
WAUSAU         MOSUNNY   78  71  79 S7        29.98S
WIS RAPIDS     SUNNY     82  70  66 CALM      30.00S
MARSHFIELD     MOSUNNY   81  70  69 SW6       29.99S
RICE LAKE      MOSUNNY   78  69  72 S7        29.96S
$$

...NORTHEAST IOWA...


CITY           SKY/WX    TMP DP  RH WIND       PRES   REMARKS
DECORAH        SUNNY     79  72  78 S9        29.98S
MASON CITY     SUNNY     79  72  79 S9        29.98S
CHARLES CITY   SUNNY     79  75  89 S9        29.98F
OELWEIN        SUNNY     79  72  78 SW8       30.01R
$$

...ELSEWHERE IN IOWA...


CITY           SKY/WX    TMP DP  RH WIND       PRES   REMARKS
DES MOINES     MOSUNNY   83  70  64 SW9       29.97F
IOWA CITY      SUNNY     83  71  67 SW12      30.02S
FORT DODGE     SUNNY     81  70  69 SW8       29.96S
$$

...NORTHERN ILLINOIS...


CITY           SKY/WX    TMP DP  RH WIND       PRES   REMARKS
CHICAGO-OHARE  MOSUNNY   82  73  74 SW7       30.05S
CHICAGO-MIDWAY MOSUNNY   84  72  67 S7        30.06R
MOLINE         SUNNY     85  71  63 W9        30.02S HX  90
ROCKFORD       SUNNY     82  73  74 SW5       30.04F
PEORIA         SUNNY     87  72  60 SW5       30.07S HX  93
$$

NOTE: "FAIR" INDICATES FEW OR NO CLOUDS BELOW 12,000 FEET WITH NO
SIGNIFICANT WEATHER AND/OR OBSTRUCTIONS TO VISIBILITY. WIND
SPEEDS ARE IN MILES-PER-HOUR.



USA.gov is the U.S. government's official web portal to all federal, state and local government web resources and services.